This demonstration page uses our WeatherBlox Daily Observations layout. Learn more.

Left ArrowRight Arrow

39.51506, -84.39828

Hourly Observations for April 20, 2015

Temp ( °F °C ) Dew Point ( °F °C ) Humidity (%) Winds ( mph kmh ) Pressure ( in mb ) Visibility ( mi km ) Precip ( " mm )
12:15 am 00:15 Cloudy 65 18.6 61 16 85 85 SSW 13 20 29.41 996 10 16.0934 N/A
12:35 am 00:35 Cloudy 66 18.8 61 16 84 84 SSW 16 26 29.44 997 10 16.0934 N/A
12:55 am 00:55 Cloudy 67 19.2 61 16 82 82 SW 17 28 29.44 997 10 16.0934 N/A
1:15 am 01:15 Cloudy with Drizzle 64 18 58 14.6 81 81 SW 23 37 29.44 997 10 16.0934 N/A
1:35 am 01:35 Mostly Cloudy 63 17.3 56 13.4 78 78 SW 21 33 29.44 997 10 16.0934 N/A
1:55 am 01:55 Cloudy 63 17.3 56 13.1 77 77 SW 16 26 29.47 998 10 16.0934 N/A
2:15 am 02:15 Mostly Cloudy 63 17 55 12.9 77 77 SW 18 30 29.44 997 10 16.0934 N/A
2:35 am 02:35 Partly Cloudy 62 16.6 55 12.7 78 78 SW 17 28 29.44 997 10 16.0934 N/A
2:55 am 02:55 Mostly Cloudy 62 16.6 55 12.8 78 78 SW 18 30 29.44 997 10 16.0934 N/A
3:15 am 03:15 Mostly Cloudy 62 16.6 55 12.8 78 78 SW 15 24 29.44 997 10 16.0934 N/A
3:35 am 03:35 Partly Cloudy 61 16 54 12.2 78 78 SW 12 19 29.44 997 10 16.0934 N/A
3:55 am 03:55 Mostly Cloudy 61 16 54 12.2 78 78 SW 15 24 29.47 998 10 16.0934 N/A
4:15 am 04:15 Cloudy 61 16 54 12.2 78 78 SSW 14 22 29.47 998 10 16.0934 N/A
4:35 am 04:35 Cloudy 61 16 54 12.2 78 78 SSW 14 22 29.47 998 10 16.0934 N/A
4:55 am 04:55 Cloudy 61 16 54 12.2 78 78 SSW 12 19 29.47 998 10 16.0934 N/A
5:15 am 05:15 Cloudy 61 16 55 12.5 80 80 SSW 13 20 29.47 998 10 16.0934 N/A
5:35 am 05:35 Mostly Cloudy 61 15.9 55 12.5 80 80 SSW 13 20 29.47 998 10 16.0934 N/A
5:55 am 05:55 Partly Cloudy 60 15.6 55 12.5 82 82 SSW 12 19 29.47 998 10 16.0934 N/A
6:15 am 06:15 Partly Cloudy 60 15.8 55 12.7 82 82 SSW 10 17 29.44 997 10 16.0934 N/A
6:35 am 06:35 Cloudy 61 16 55 13 83 83 SSW 8 13 29.44 997 10 16.0934 N/A
6:55 am 06:55 Cloudy 61 16 55 13 83 83 SSW 10 17 29.44 997 10 16.0934 N/A
7:15 am 07:15 Cloudy with Rain 61 16 56 13.1 83 83 S 9 15 29.44 997 10 16.0934 N/A
7:35 am 07:35 Cloudy 61 16 56 13.2 84 84 SSW 9 15 29.44 997 10 16.0934 N/A
7:55 am 07:55 Cloudy with Rain 60 15.8 56 13.1 84 84 SW 12 19 29.44 997 4 6.43736 N/A
8:15 am 08:15 Cloudy with Light Rain 60 15.3 55 13 86 86 SW 20 31 29.44 997 3 4.82802 N/A
8:35 am 08:35 Cloudy with Drizzle 60 15.3 55 12.5 84 84 SW 15 24 29.47 998 4 6.43736 N/A
8:55 am 08:55 Cloudy with Drizzle 60 15.3 55 12.7 85 85 WSW 15 24 29.47 998 5 8.0467 N/A
9:15 am 09:15 Cloudy with Heavy Rain 60 15.3 55 12.9 86 86 SW 20 31 29.47 998 2.5 4.02335 N/A
9:35 am 09:35 Cloudy with Light Rain 60 15.3 55 12.8 85 85 SW 15 24 29.47 998 7 11.26538 N/A
9:55 am 09:55 Cloudy with Drizzle 60 15.3 55 12.7 85 85 SSW 13 20 29.47 998 10 16.0934 N/A
10:15 am 10:15 Cloudy 60 15.5 55 12.6 83 83 SW 16 26 29.47 998 10 16.0934 N/A
10:35 am 10:35 Cloudy with Light Rain 60 15.3 54 12 81 81 SW 14 22 29.47 998 10 16.0934 N/A
10:55 am 10:55 Cloudy 61 16 55 12.6 80 80 SW 15 24 29.47 998 10 16.0934 N/A
11:15 am 11:15 Cloudy 61 16.3 53 11.7 74 74 WSW 23 37 29.5 999 10 16.0934 N/A
11:35 am 11:35 Mostly Cloudy 62 16.6 52 11.1 70 70 WSW 16 26 29.5 999 10 16.0934 N/A
11:55 am 11:55 Cloudy 61 16.3 51 10.8 70 70 WSW 23 37 29.5 999 10 16.0934 N/A
12:15 pm 12:15 Mostly Cloudy 63 17 52 11 68 68 SW 21 33 29.5 999 10 16.0934 N/A
12:35 pm 12:35 Mostly Cloudy with Light Rain 60 15.3 52 11.1 76 76 W 23 37 29.53 1000 3 4.82802 N/A
12:55 pm 12:55 Mostly Cloudy 62 16.6 51 10.7 68 68 WSW 21 33 29.53 1000 10 16.0934 N/A
1:15 pm 13:15 Cloudy 62 16.6 49 9.5 63 63 WSW 23 37 29.53 1000 10 16.0934 N/A
1:35 pm 13:35 Cloudy 62 16.6 48 8.9 61 61 WSW 22 35 29.56 1001 10 16.0934 N/A
1:55 pm 13:55 Cloudy 63 17 46 7.7 55 55 WSW 24 39 29.56 1001 10 16.0934 N/A
2:15 pm 14:15 Cloudy 62 16.6 47 8.6 59 59 WSW 21 33 29.56 1001 10 16.0934 N/A
2:35 pm 14:35 Cloudy 62 16.8 46 7.7 55 55 W 25 41 29.56 1001 10 16.0934 N/A
2:55 pm 14:55 Cloudy 61 16.1 46 7.5 57 57 W 22 35 29.59 1002 10 16.0934 N/A
3:15 pm 15:15 Cloudy 61 16.2 44 6.9 54 54 W 18 30 29.59 1002 10 16.0934 N/A
3:35 pm 15:35 Cloudy 58 14.2 45 7 62 62 W 21 33 29.59 1002 10 16.0934 N/A
3:55 pm 15:55 Cloudy 57 13.8 42 5.5 58 58 W 24 39 29.62 1003 10 16.0934 N/A
4:15 pm 16:15 Cloudy 60 15.3 44 6.4 56 56 W 20 31 29.62 1003 10 16.0934 N/A
4:35 pm 16:35 Cloudy 57 13.8 41 5 56 56 WSW 20 31 29.62 1003 10 16.0934 N/A
4:55 pm 16:55 Cloudy 57 13.8 42 5.3 57 57 WSW 13 20 29.62 1003 10 16.0934 N/A
5:15 pm 17:15 Cloudy 60 15.3 42 5.8 53 53 WSW 16 26 29.62 1003 10 16.0934 N/A
5:35 pm 17:35 Cloudy 60 15.3 41 4.8 50 50 WSW 16 26 29.62 1003 10 16.0934 N/A
5:55 pm 17:55 Cloudy 57 13.8 42 5.3 57 57 W 14 22 29.62 1003 10 16.0934 N/A
6:15 pm 18:15 Cloudy 57 13.8 38 3.5 50 50 W 18 30 29.65 1004 10 16.0934 N/A
6:35 pm 18:35 Cloudy 57 13.8 39 4 52 52 W 20 31 29.65 1004 10 16.0934 N/A
6:55 pm 18:55 Partly Cloudy 57 13.8 38 3.5 50 50 W 18 30 29.65 1004 10 16.0934 N/A
7:15 pm 19:15 Mostly Cloudy 55 12.7 37 2.9 52 52 WSW 14 22 29.65 1004 10 16.0934 N/A
7:35 pm 19:35 Mostly Cloudy 55 12.5 38 3.3 54 54 W 9 15 29.68 1005 10 16.0934 N/A
7:55 pm 19:55 Cloudy 55 12.5 37 2.8 52 52 W 13 20 29.68 1005 10 16.0934 N/A
8:15 pm 20:15 Partly Cloudy 55 12.5 35 1.9 49 49 W 15 24 29.68 1005 10 16.0934 N/A
8:35 pm 20:35 Clear 55 12.5 36 2.4 50 50 W 14 22 29.71 1006 10 16.0934 N/A
8:55 pm 20:55 Partly Cloudy 55 12.5 37 2.7 52 52 W 12 19 29.71 1006 10 16.0934 N/A
9:15 pm 21:15 Mostly Cloudy 52 11.2 37 2.6 56 56 W 7 11 29.74 1007 10 16.0934 N/A
9:35 pm 21:35 Mostly Cloudy 55 12.5 36 2.2 50 50 W 16 26 29.74 1007 10 16.0934 N/A
9:55 pm 21:55 Cloudy 55 12.5 36 2.2 50 50 W 16 26 29.74 1007 10 16.0934 N/A
10:15 pm 22:15 Cloudy 52 11.1 35 1.5 52 52 W 16 26 29.77 1008 10 16.0934 N/A
10:35 pm 22:35 Mostly Cloudy 51 10.3 34 1 53 53 W 12 19 29.8 1009 10 16.0934 N/A
10:55 pm 22:55 Partly Cloudy 49 9.6 34 1.2 56 56 W 7 11 29.8 1009 10 16.0934 N/A
11:15 pm 23:15 Partly Cloudy 49 9.6 36 2.1 60 60 W 8 13 29.8 1009 10 16.0934 N/A
11:35 pm 23:35 Cloudy 49 9.6 34 1.3 57 57 W 9 15 29.8 1009 10 16.0934 N/A
11:55 pm 23:55 Cloudy 49 9.6 35 1.4 57 57 WSW 10 17 29.8 1009 10 16.0934 N/A

Powered by AerisWeather